#timestamp,LO_Frequency,Hit,StdDev 
1512648015.8,286047002.1,N
1512648035.6,286046997.0,N
1512648055.4,286047000.7,N
1512648075.3,286047002.8,N
1512648095.1,286047000.0,N
1512648096.0,286047000.0,N
1512648115.8,286047000.2,N
1512648135.7,286046999.3,N
1512648155.5,286046999.5,N
1512648175.3,286046997.1,N
1512648195.2,286046997.5,N
1512648215.9,286046996.4,N
1512648235.7,286046990.2,Y
1512648255.6,286046993.2,P
1512648275.4,286046990.8,N
1512648295.2,286046991.8,N
1512648315.0,286046991.9,N
1512648315.9,286046991.9,N
1512648335.8,286046993.2,N
1512648355.6,286046991.9,N
1512648375.4,286046993.6,N
1512648395.3,286046993.9,N
1512648415.1,286046992.6,N
1512648435.8,286046993.2,N
1512648455.7,286046991.7,Y
1512648475.5,286047001.7,P
1512648495.3,286047002.1,N
1512648515.2,286047004.0,N
1512648535.9,286047003.2,N
1512648555.7,286047007.6,N
1512648575.6,286047004.6,N
1512648595.4,286047006.5,N
1512648615.2,286047012.5,Y
1512648635.1,286047009.6,P
1512648636.0,286047009.6,N
1512648655.8,286047008.9,N
1512648675.6,286047008.5,N
1512648695.5,286047008.1,Y
1512648715.3,286046998.1,P
1512648735.1,286047002.7,N
1512648755.9,286046996.5,N
1512648775.7,286046999.5,N
1512648795.5,286046999.6,N
1512648815.3,286046994.9,N
1512648835.2,286046996.3,N
1512648855.0,286046995.4,N
1512648855.9,286046995.4,N
1512648875.7,286046998.4,N
1512648895.6,286046995.9,N
1512648915.4,286046991.5,N
1512648935.2,286046991.7,N
1512648955.1,286046993.5,N
1512648956.0,286046993.5,N
1512648975.8,286046999.2,N
1512648995.6,286047000.3,N
1512649015.5,286047000.8,N
1512649035.3,286047000.8,N
1512649055.1,286046997.3,N
1512649075.9,286046996.7,N
1512649095.7,286046994.7,N
1512649115.5,286046990.1,N
1512649135.3,286046992.3,N
1512649155.2,286046992.9,N
1512649175.0,286046994.6,N
1512649175.9,286046994.6,N
1512649195.9,286046992.6,N
1512649215.7,286046993.7,N
1512649235.5,286046994.6,N
1512649255.4,286046996.4,N
1512649275.2,286046992.7,N
1512649295.0,286046993.6,N
1512649295.9,286046993.6,N
1512649315.8,286046993.9,N
1512649335.6,286046995.6,N
1512649355.4,286046996.0,N
1512649375.3,286046998.7,N
1512649395.1,286046999.0,N
1512649396.0,286046999.0,N
1512649415.8,286046997.0,N
1512649435.7,286046996.3,N
1512649455.5,286046997.6,N
1512649475.3,286046996.7,N
1512649495.1,286046995.4,N
1512649515.9,286046995.6,N
1512649535.7,286046994.7,N
1512649555.6,286046991.9,Y
1512649575.4,286046995.1,P
1512649595.2,286046998.0,P
1512649615.0,286046999.5,N
1512649615.9,286046999.5,N
1512649635.8,286046999.5,N
1512649655.6,286046999.3,N
1512649675.4,286046997.7,N
1512649695.3,286046993.7,Y
1512649715.1,286046995.8,P
1512649735.8,286046995.0,P
1512649755.7,286046993.7,P
1512649775.5,286046994.5,Y
1512649795.3,286046998.2,P
1512649815.2,286046997.5,N
1512649835.0,286046997.6,N
1512649835.9,286046997.6,N
1512649855.7,286046996.2,Y
1512649875.6,286047001.9,P
1512649895.4,286047004.7,N
1512649915.2,286047000.9,N
1512649935.1,286047001.0,N
1512649936.0,286047001.0,N
1512649955.8,286047001.1,N
1512649975.6,286046997.3,N
1512649995.5,286046999.6,N
1512650015.3,286046999.3,N
1512650035.1,286046999.1,N
1512650055.9,286047004.2,N
1512650075.7,286047004.1,N
1512650095.5,286047006.5,N
1512650115.4,286047003.5,N
1512650135.2,286047005.6,N
1512650155.0,286047005.6,N
1512650155.9,286047005.6,N
1512650175.8,286047007.5,N
1512650195.6,286047004.0,N
1512650215.4,286047004.4,N
1512650235.2,286047000.4,N
1512650255.1,286047000.6,N
1512650256.0,286047000.6,N
1512650275.8,286046997.9,N
1512650295.6,286046995.6,N
1512650315.5,286046994.3,N
1512650335.3,286046993.1,N
1512650355.1,286046990.1,N
1512650375.9,286046996.0,N
1512650395.7,286046992.4,N
1512650415.5,286046994.1,N
1512650435.4,286046990.3,N
1512650455.2,286046996.4,N
1512650475.0,286046996.5,N
1512650475.9,286046996.5,N
1512650495.8,286046999.6,N
1512650515.6,286047002.5,N
1512650535.4,286047003.2,N
1512650555.3,286047005.8,N
1512650575.1,286047003.9,N
1512650576.0,286047003.9,N
1512650595.8,286047002.4,N
1512650615.6,286047000.8,N
1512650635.5,286046998.1,N
1512650655.3,286046999.2,N
1512650675.1,286046998.9,N
1512650695.9,286046999.2,N
1512650715.7,286046998.7,N
1512650735.5,286046997.0,N
1512650755.4,286046997.0,N
1512650775.2,286046998.4,N
1512650795.0,286047001.6,N
1512650795.9,286047001.6,N
1512650815.8,286047000.2,N
1512650835.6,286046999.1,N
1512650855.4,286046999.2,N
1512650875.3,286046998.7,N
1512650895.1,286046999.8,N
1512650896.0,286046999.8,N
1512650915.8,286047003.4,N
1512650935.7,286047003.4,N
1512650955.5,286047005.3,N
1512650975.3,286047004.3,N
1512650995.1,286047001.4,N
1512651015.9,286047003.1,N
1512651035.7,286047003.8,N
1512651055.5,286047004.3,N
1512651075.4,286047002.5,N
1512651095.2,286047004.4,N
1512651115.0,286047000.1,N
1512651115.9,286047000.1,N
1512651135.8,286047002.8,N
1512651155.6,286047000.6,N
1512651175.4,286046997.6,N
1512651195.3,286046995.2,N
1512651215.1,286046997.7,N
1512651216.0,286046997.7,N
1512651235.8,286046997.6,N
1512651255.7,286046996.5,N
1512651275.5,286046996.5,N
1512651295.3,286046999.4,N
1512651315.2,286046996.7,N
1512651335.9,286047000.4,N
1512651355.7,286046996.7,N
1512651375.6,286046997.5,N
1512651395.4,286047000.0,N
1512651415.2,286047000.4,N
1512651435.0,286046998.2,N
1512651436.0,286046998.2,N
1512651455.8,286046999.4,N
1512651475.6,286046998.2,N
1512651495.4,286046999.4,N
1512651515.3,286046999.3,N
1512651535.1,286047001.0,N
1512651555.8,286046999.0,N
1512651575.7,286046999.3,N
1512651595.5,286046999.5,N
